When you browse on this site, cookies collect data to enhance your experience and personalize the content and advertising you see.
Visit our Privacy Policy to learn more. By continuing to use the site, you agree to this use of cookies and data.
  • In Hungary
  • List of Countries
  • For 7 days
  • Water Temperature
  • Weather Map
  • News
  • Weather Widgets
  • user-avatar
    Login

    Hourly Weather Maliivka

    Today, 18 November, Monday

    Time Temperature Precipitation Wind Pressure Humidity
    00:00 +2°C° 0 mm 3 mps 761 mmHg 89%
    01:00 +2°C° 0 mm 3 mps 761 mmHg 89%
    02:00 +2°C° 0 mm 3 mps 760 mmHg 90%
    03:00 +2°C° 0 mm 3 mps 760 mmHg 92%
    04:00 +1°C° 0 mm 3 mps 760 mmHg 92%
    05:00 +1°C° 0 mm 3 mps 760 mmHg 92%
    06:00 +1°C° 0 mm 3 mps 760 mmHg 93%
    07:00 +1°C° 0 mm 3 mps 760 mmHg 92%
    08:00 +1°C° 0 mm 3 mps 760 mmHg 91%
    09:00 +1°C° 0 mm 4 mps 760 mmHg 89%
    10:00 +3°C° 0 mm 4 mps 760 mmHg 82%
    11:00 +4°C° 0 mm 4 mps 760 mmHg 76%
    12:00 +6°C° 0 mm 4 mps 760 mmHg 69%
    13:00 +6°C° 0 mm 4 mps 759 mmHg 66%
    14:00 +8°C° 0 mm 3 mps 759 mmHg 64%
    15:00 +7°C° 0 mm 3 mps 759 mmHg 69%
    16:00 +5°C° 0 mm 3 mps 759 mmHg 73%
    17:00 +5°C° 0 mm 2 mps 759 mmHg 78%
    18:00 +4°C° 0 mm 2 mps 759 mmHg 82%
    19:00 +4°C° 0 mm 2 mps 759 mmHg 84%
    20:00 +4°C° 0 mm 2 mps 759 mmHg 85%
    21:00 +3°C° 0 mm 2 mps 759 mmHg 86%
    22:00 +3°C° 0 mm 2 mps 759 mmHg 87%
    23:00 +3°C° 0 mm 2 mps 759 mmHg 88%

    Tomorrow, 19 November, Tuesday

    Time Temperature Precipitation Wind Pressure Humidity
    00:00 +4°C° 0 mm 1 mps 759 mmHg 88%
    01:00 +4°C° 0 mm 1 mps 759 mmHg 89%
    02:00 +3°C° 0 mm 1 mps 759 mmHg 90%
    03:00 +3°C° 0 mm 1 mps 759 mmHg 90%
    04:00 +3°C° 0 mm 1 mps 759 mmHg 91%
    05:00 +3°C° 0 mm 1 mps 759 mmHg 92%
    06:00 +3°C° 0 mm 1 mps 759 mmHg 92%
    07:00 +3°C° 0 mm 1 mps 759 mmHg 92%
    08:00 +2°C° 0 mm 2 mps 759 mmHg 92%
    09:00 +2°C° 0 mm 2 mps 759 mmHg 92%
    10:00 +4°C° 0 mm 2 mps 759 mmHg 85%
    11:00 +5°C° 0 mm 2 mps 759 mmHg 78%
    12:00 +7°C° 0 mm 2 mps 759 mmHg 71%
    13:00 +7°C° 0 mm 2 mps 759 mmHg 68%
    14:00 +8°C° 0 mm 2 mps 759 mmHg 66%
    15:00 +8°C° 0 mm 2 mps 759 mmHg 63%
    16:00 +7°C° 0 mm 2 mps 759 mmHg 69%
    17:00 +6°C° 0 mm 2 mps 759 mmHg 74%
    18:00 +5°C° 0 mm 2 mps 758 mmHg 79%
    19:00 +4°C° 0 mm 2 mps 759 mmHg 82%
    20:00 +4°C° 0 mm 2 mps 759 mmHg 84%
    21:00 +3°C° 0 mm 2 mps 759 mmHg 86%
    22:00 +3°C° 0 mm 2 mps 759 mmHg 87%
    23:00 +2°C° 0 mm 2 mps 759 mmHg 88%

    Day after tomorrow, 20 November, Wednesday

    Time Temperature Precipitation Wind Pressure Humidity
    00:00 +2°C° 0 mm 2 mps 759 mmHg 89%
    01:00 +1°C° 0 mm 3 mps 759 mmHg 89%
    02:00 0°C° 0 mm 3 mps 760 mmHg 89%
    03:00 0°C° 0 mm 3 mps 760 mmHg 88%
    04:00 0°C° 0 mm 3 mps 760 mmHg 87%
    05:00 -1°C° 0 mm 3 mps 760 mmHg 85%
    06:00 -1°C° 0 mm 3 mps 760 mmHg 83%
    07:00 -2°C° 0 mm 4 mps 760 mmHg 82%
    08:00 -2°C° 0 mm 4 mps 760 mmHg 80%
    09:00 -2°C° 0 mm 4 mps 761 mmHg 78%
    10:00 0°C° 0 mm 5 mps 761 mmHg 73%
    11:00 +1°C° 0 mm 5 mps 761 mmHg 68%
    12:00 +2°C° 0 mm 5 mps 761 mmHg 62%
    13:00 +3°C° 0 mm 6 mps 761 mmHg 65%
    14:00 +3°C° 0 mm 6 mps 761 mmHg 68%
    15:00 +4°C° 0 mm 7 mps 762 mmHg 70%
    16:00 +3°C° 0 mm 7 mps 762 mmHg 72%
    17:00 +2°C° 0 mm 7 mps 762 mmHg 74%
    18:00 0°C° 0 mm 7 mps 762 mmHg 76%
    19:00 0°C° 0 mm 7 mps 763 mmHg 71%
    20:00 -1°C° 0 mm 7 mps 764 mmHg 66%
    21:00 -1°C° 0 mm 7 mps 764 mmHg 60%
    22:00 -2°C° 0 mm 7 mps 764 mmHg 63%
    23:00 -3°C° 0 mm 7 mps 765 mmHg 66%

    21 November, Thursday

    Time Temperature Precipitation Wind Pressure Humidity
    00:00 -6°C° 0 mm 7 mps 765 mmHg 69%
    01:00 -6°C° 0 mm 7 mps 765 mmHg 67%
    02:00 -7°C° 0 mm 7 mps 766 mmHg 64%
    03:00 -8°C° 0 mm 7 mps 766 mmHg 62%
    04:00 -8°C° 0 mm 7 mps 766 mmHg 60%
    05:00 -9°C° 0 mm 7 mps 766 mmHg 58%
    06:00 -9°C° 0 mm 7 mps 767 mmHg 56%
    07:00 -11°C° 0 mm 7 mps 767 mmHg 53%
    08:00 -11°C° 0 mm 7 mps 767 mmHg 50%
    09:00 -11°C° 0 mm 7 mps 768 mmHg 46%
    10:00 -11°C° 0 mm 7 mps 768 mmHg 43%
    11:00 -9°C° 0 mm 7 mps 768 mmHg 39%
    12:00 -8°C° 0 mm 7 mps 768 mmHg 35%
    13:00 -8°C° 0 mm 7 mps 768 mmHg 33%
    14:00 -7°C° 0 mm 7 mps 768 mmHg 30%
    15:00 -7°C° 0 mm 7 mps 768 mmHg 28%
    16:00 -8°C° 0 mm 7 mps 768 mmHg 29%
    17:00 -9°C° 0 mm 6 mps 768 mmHg 29%
    18:00 -9°C° 0 mm 6 mps 768 mmHg 29%
    19:00 -10°C° 0 mm 6 mps 768 mmHg 30%
    20:00 -10°C° 0 mm 6 mps 768 mmHg 30%
    21:00 -10°C° 0 mm 6 mps 769 mmHg 31%
    22:00 -11°C° 0 mm 6 mps 769 mmHg 32%
    23:00 -11°C° 0 mm 6 mps 769 mmHg 34%

    22 November, Friday

    Time Temperature Precipitation Wind Pressure Humidity
    00:00 -11°C° 0 mm 6 mps 769 mmHg 35%
    01:00 -11°C° 0 mm 6 mps 769 mmHg 37%
    02:00 -12°C° 0 mm 6 mps 769 mmHg 40%
    03:00 -12°C° 0 mm 6 mps 769 mmHg 42%
    04:00 -12°C° 0 mm 6 mps 769 mmHg 45%
    05:00 -12°C° 0 mm 6 mps 769 mmHg 47%
    06:00 -12°C° 0 mm 6 mps 768 mmHg 49%
    07:00 -12°C° 0 mm 6 mps 769 mmHg 49%
    08:00 -12°C° 0 mm 6 mps 769 mmHg 48%
    09:00 -13°C° 0 mm 7 mps 769 mmHg 48%
    10:00 -11°C° 0 mm 7 mps 768 mmHg 43%
    11:00 -9°C° 0 mm 7 mps 768 mmHg 39%
    12:00 -8°C° 0 mm 7 mps 768 mmHg 34%
    13:00 -7°C° 0 mm 7 mps 768 mmHg 33%
    14:00 -7°C° 0 mm 7 mps 767 mmHg 31%
    15:00 -6°C° 0 mm 7 mps 767 mmHg 30%
    16:00 -7°C° 0 mm 7 mps 767 mmHg 32%
    17:00 -8°C° 0 mm 6 mps 766 mmHg 35%
    18:00 -9°C° 0 mm 6 mps 766 mmHg 37%
    19:00 -9°C° 0 mm 6 mps 766 mmHg 38%
    20:00 -9°C° 0 mm 6 mps 766 mmHg 38%
    21:00 -9°C° 0 mm 6 mps 766 mmHg 39%
    22:00 -10°C° 0 mm 6 mps 766 mmHg 41%
    23:00 -10°C° 0 mm 6 mps 766 mmHg 42%

    23 November, Saturday

    Time Temperature Precipitation Wind Pressure Humidity
    00:00 -10°C° 0 mm 5 mps 766 mmHg 44%
    01:00 -10°C° 0 mm 6 mps 766 mmHg 45%
    02:00 -11°C° 0 mm 6 mps 766 mmHg 46%
    03:00 -11°C° 0 mm 6 mps 765 mmHg 48%
    04:00 -11°C° 0 mm 6 mps 765 mmHg 48%
    05:00 -11°C° 0 mm 6 mps 765 mmHg 49%
    06:00 -11°C° 0 mm 6 mps 765 mmHg 50%
    07:00 -11°C° 0 mm 6 mps 765 mmHg 49%
    08:00 -11°C° 0 mm 6 mps 765 mmHg 48%
    09:00 -10°C° 0 mm 6 mps 765 mmHg 47%
    10:00 -9°C° 0 mm 6 mps 764 mmHg 44%
    11:00 -8°C° 0 mm 6 mps 764 mmHg 41%
    12:00 -6°C° 0 mm 7 mps 764 mmHg 38%
    13:00 -6°C° 0 mm 7 mps 764 mmHg 36%
    14:00 -4°C° 0 mm 6 mps 763 mmHg 34%
    15:00 -4°C° 0 mm 6 mps 763 mmHg 32%
    16:00 -5°C° 0 mm 6 mps 763 mmHg 33%
    17:00 -6°C° 0 mm 6 mps 763 mmHg 34%
    18:00 -6°C° 0 mm 6 mps 763 mmHg 35%
    19:00 -8°C° 0 mm 6 mps 763 mmHg 36%
    20:00 -8°C° 0 mm 6 mps 763 mmHg 38%
    21:00 -8°C° 0 mm 6 mps 763 mmHg 39%
    22:00 -7°C° 0 mm 5 mps 763 mmHg 40%
    23:00 -8°C° 0 mm 5 mps 763 mmHg 42%
    Show more